This is the latest recevied weather packets stored in our database for station/object KE8GJZ-2. If no packets are shown the sender has not sent any weather packets the latest 10 day(s).
| Time | Temp. | Humidity | Pressure | Rain* | Wind** | Luminosity | Snow |
|---|---|---|---|---|---|---|---|
| 1777558557 | 8.33° C | 77% | 1016.6 hPa | 0 mm | - | 607 W/m² | - |
| 1777558253 | 8.33° C | 76% | 1016.6 hPa | 0 mm | - | 576 W/m² | - |
| 1777557950 | 8.33° C | 79% | 1016.3 hPa | 0 mm | - | 565 W/m² | - |
| 1777557647 | 7.78° C | 80% | 1016.5 hPa | 0 mm | - | 533 W/m² | - |
| 1777557343 | 7.22° C | 83% | 1016.7 hPa | 0 mm | - | 499 W/m² | - |
| 1777557039 | 7.78° C | 83% | 1016.7 hPa | 0 mm | - | 490 W/m² | - |
| 1777556735 | 8.33° C | 81% | 1016.8 hPa | 0 mm | - | 466 W/m² | - |
| 1777556432 | 7.78° C | 84% | 1016.7 hPa | 0 mm | - | 433 W/m² | - |
| 1777556126 | 7.22° C | 87% | 1016.9 hPa | 0 mm | - | 436 W/m² | - |
| 1777555822 | 6.67° C | 86% | 1016.8 hPa | 0 mm | - | 177 W/m² | - |
| 1777555518 | 7.22° C | 88% | 1017 hPa | 0 mm | - | 258 W/m² | - |
| 1777555215 | 7.22° C | 87% | 1016.9 hPa | 0 mm | - | 422 W/m² | - |
| 1777554912 | 7.22° C | 88% | 1016.6 hPa | 0 mm | - | 348 W/m² | - |
| 1777554608 | 6.67° C | 88% | 1017 hPa | 0 mm | - | 239 W/m² | - |
| 1777554305 | 6.67° C | 89% | 1016.8 hPa | 0 mm | - | 354 W/m² | - |
| 1777554002 | 7.22° C | 91% | 1016.9 hPa | 0 mm | - | 319 W/m² | - |
| 1777553698 | 6.67° C | 90% | 1016.9 hPa | 0 mm | - | 275 W/m² | - |
| 1777553395 | 6.67° C | 91% | 1016.7 hPa | 0 mm | - | 271 W/m² | - |
| 1777553091 | 6.11° C | 92% | 1016.8 hPa | 0 mm | - | 239 W/m² | - |
| 1777552791 | 6.11° C | 93% | 1016.8 hPa | 0 mm | - | 241 W/m² | - |
| 1777552487 | 6.11° C | 90% | 1016.9 hPa | 0 mm | - | 209 W/m² | - |
| 1777552183 | 6.67° C | 90% | 1016.6 hPa | 0 mm | - | 200 W/m² | - |
| 1777551880 | 6.67° C | 89% | 1016.8 hPa | 0 mm | - | 177 W/m² | - |
| 1777551578 | 6.11° C | 91% | 1016.9 hPa | 0 mm | - | 171 W/m² | - |
| 1777551275 | 6.67° C | 93% | 1017 hPa | 0 mm | - | 161 W/m² | - |
* Rain latest hour (hover to see other rain measurements)
** Current wind speed in m/s (hover to see current wind gust speed)